Regional Weather Roundup
Issued by NWS

Home | Current Version | Previous Version | Graphics & Text | Print | Product List | Glossary Off
Versions: 1 2 3 4 5 6 7 8 9 10 11 12 13 14 15 16 17 18 19 20 21 22 23 24 25 26 27 28 29 30 31 32 33 34 35 36 37 38 39 40 41 42 43 44 45 46 47 48 49 50

000
ASUS43 KMPX 141710
RWRMN
WEATHER ROUNDUP FOR MINNESOTA
NATIONAL WEATHER SERVICE TWIN CITIES/CHANHASSEN MN
1100 AM CST SUN FEB 14 2016


NOTE: "FAIR" INDICATES FEW OR NO CLOUDS BELOW 12,000 FEET WITH NO
SIGNIFICANT WEATHER AND/OR OBSTRUCTIONS TO VISIBILITY. N/A MEANS
CURRENT SKY AND/OR WEATHER CONDITIONS ARE NOT AVAILABLE.

MNZ060>063-068>070-141800-
   Twin Cities Metro

CITY           SKY/WX    TMP DP  RH WIND       PRES   REMARKS
TWIN CITIES    LGT SNOW  15   9  76 SE13      30.03F WCI   1
ST PAUL        LGT SNOW  15   9  76 S14       30.05F WCI   0
CRYSTAL        LGT SNOW  16   9  74 SE12      30.01F WCI   3
BLAINE         LGT SNOW  18  10  73 MISG      30.01F
LAKEVILLE      LGT SNOW  14  10  85 SE15      30.02S WCI  -1
EDEN PRAIRIE   LGT SNOW  17   9  70 SE12      30.01F WCI   4
SOUTH ST PAUL  LGT SNOW  16   9  72 S8        30.04F WCI   6
LAKE ELMO      LGT SNOW  18  10  73 SE9       30.05S WCI   6
$$
MNZ001>005-007-008-013>017-022>024-027-028-141800-
   Northwest Minnesota

CITY           SKY/WX    TMP DP  RH WIND       PRES   REMARKS
BEMIDJI        LGT SNOW   9   5  84 SE12      29.85F WCI  -6
HALLOCK        LGT SNOW  16  12  86 S26       29.78F VSB 3/4 WCI  -3
ROSEAU         LGT SNOW  16   9  73 S18       29.81F WCI  -1
WARROAD        LGT SNOW  12   7  79 S12G17    29.83S WCI  -2
THIEF RVR FALL CLOUDY    14   9  79 S18       29.82S WCI  -3
CROOKSTON      LGT SNOW  16  10  79 S22       29.83F VSB 3/4 WCI  -2
FOSSTON        LGT SNOW  12   7  79 S15G22    29.82F VSB 1   WCI  -4
DETROIT LAKES  LGT SNOW  14  10  85 S17       29.83F WCI  -3
MOORHEAD       MIX PCPN  14  10  85 S18       29.84F WCI  -3
PARK RAPIDS    SNOW      11   6  81 SE17      29.86F VSB 1/2 WCI  -6
MAHNOMEN       CLOUDY    13   8  80 S15G21    29.82F HAZE    WCI  -3
$$
MNZ006-009>011-018-025>026-141800-
   North Central Minnesota

CITY           SKY/WX    TMP DP  RH WIND       PRES   REMARKS
BAUDETTE       LGT SNOW  12   5  73 S15       29.84F WCI  -4
FLAG ISLAND    LGT SNOW  10   7  85 S18       29.83F WCI  -8
INTL FALLS     CLOUDY    10  -2  58 S9G17     29.92F WCI  -3
WASKISH        LGT SNOW  10   7  85 S7        29.87F WCI   0
BIG FORK       CLOUDY    10   0  61 SE12G17   29.92  WCI  -4
LONGVILLE      LGT SNOW  10   5  79 SE9       29.91F WCI  -2
GRAND RAPIDS   CLOUDY     9   1  72 S16       29.94F WCI  -9
CRANE LAKE     CLOUDY     9  -9  43 S7        29.99F WCI  -3
ORR            CLOUDY    10  -4  52 S10       29.92F WCI  -3
COOK           CLOUDY    10   0  61 SE8       29.95F WCI  -1
WALKER         LGT SNOW   9   4  81 S9        29.88F WCI  -5
$$
MNZ012-019>021-037-141800-
   Northeast Minnesota

CITY           SKY/WX    TMP DP  RH WIND       PRES   REMARKS
DULUTH         LGT SNOW   8  -4  58 S10       29.99F WCI  -6
ELY            CLOUDY    12  -6  44 S12G18    29.98F WCI  -2
HIBBING        CLOUDY     8  -1  66 S10       29.96F WCI  -6
EVELETH        FLURRIES  12   1  62 S10G17    29.97F WCI  -1
DULUTH HARBOR  CLOUDY    12  -4  48 CALM      30.09F
TWO HARBORS    FLURRIES  12   0  57 S7        30.02F WCI   2
SILVER BAY     CLOUDY    14  -4  44 SE10      30.04F WCI   1
GRAND MARAIS     N/A     19   9  65 S14       30.12F WCI   6
G MARAIS ARPRT SUNNY     14   0  52 S13G18    30.01F WCI   0
$$
MNZ029>031-032-039>041-046>048-054>057-064-141800-
   West Central Minnesota

CITY           SKY/WX    TMP DP  RH WIND       PRES   REMARKS
FERGUS FALLS   LGT SNOW  14  10  85 S20       29.89F WCI  -3
WHEATON        CLOUDY    18  12  79 SE17      29.87F FOG     WCI   2
MORRIS         LGT SNOW  16  12  86 S20       29.87F WCI  -1
ALEXANDRIA     LGT SNOW  14   9  80 SE20      29.87F WCI  -3
ELBOW LAKE     LGT SNOW  14  10  87 SE18      29.87F VSB 1   WCI  -3
WADENA         LGT SNOW  10   7  85 SE15      29.87F WCI  -6
GLENWOOD       LGT SNOW  14  10  85 SE16      29.89F WCI  -2
APPLETON       FLURRIES  18  12  79 S12G20    29.89F WCI   5
BENSON         FLURRIES  18  10  73 S16       29.90S WCI   3
ORTONVILLE     CLOUDY    16  10  79 S14       29.87F WCI   1
MADISON        CLOUDY    19  12  73 S14       29.89S WCI   6
WILLMAR        LGT SNOW  18  12  79 SE17      29.93F WCI   2
$$
MNZ033>034-036-042>043-049>051-058-059-141800-
   Central Minnesota

CITY           SKY/WX    TMP DP  RH WIND       PRES   REMARKS
ST CLOUD       LGT SNOW  15   7  70 SE15      29.97F WCI   0
SAUK CENTRE    LGT SNOW  14  10  86 SE13      29.91F VSB 1   WCI  -1
PAYNESVILLE    FLURRIES  16  10  79 SE13G18   29.94S WCI   2
AITKIN         LGT SNOW  14   3  62 S15       29.95F WCI  -1
PINE RIVER     LGT SNOW  10   5  79 SE10      29.95F WCI  -3
BRAINERD       LGT SNOW  11   5  77 S10G18    29.94F VSB 3/4 WCI  -3
STAPLES        LGT SNOW  10   7  85 SE12      29.90F WCI  -4
LONG PRAIRIE   LGT SNOW  12   9  85 SE10      29.91F VSB 3/4 WCI  -1
LITTLE FALLS   LGT SNOW  14   7  73 SE14      29.96S WCI  -1
LITCHFIELD     MIX PCPN  18  12  79 SE9G17    29.95F WCI   6
BUFFALO        FLURRIES  17  10  75 SE13G18   29.99F WCI   3
MAPLE LAKE     LGT SNOW  17  12  80 SE9G16    29.99S WCI   6
$$
MNZ037-044-045-052-053-141800-
   East Central Minnesota

CITY           SKY/WX    TMP DP  RH WIND       PRES   REMARKS
PRINCETON      CLOUDY    18   9  68 SE12      29.99F WCI   5
MORA           CLOUDY    12   3  67 SE9       30.03S WCI   0
CAMBRIDGE      PTSUNNY   16   5  62 SE7       30.00S WCI   6
RUSH CITY      CLOUDY    13   4  67 SE9       30.03F WCI   1
MOOSE LAKE     LGT SNOW  14   5  67 S6        30.00F WCI   5
HINCKLEY       CLOUDY    14   5  67 SE7       30.02F HAZE    WCI   4
CLOQUET        LGT SNOW   9  -2  61 SE3       30.00F
MCGREGOR       CLOUDY    14   5  67 SE15      29.98F WCI  -1
$$
MNZ071>073-080-081-089-090-097-098-141800-
   Southwest Minnesota

CITY           SKY/WX    TMP DP  RH WIND       PRES   REMARKS
MONTEVIDEO     CLOUDY    18  12  79 S10G21    29.92S WCI   6
GRANITE FALLS  LGT SNOW  19  14  83 SE13      29.92F WCI   5
CANBY          CLOUDY    22  15  75 S9        29.88S WCI  11
MARSHALL       CLOUDY    18  11  74 S16       29.89F WCI   3
REDWOOD FALLS  LGT SNOW  17  12  80 S21G26    29.93F WCI   0
OLIVIA         LGT SNOW  18  14  86 SE15      29.92F WCI   3
PIPESTONE      LGT SNOW  18   9  68 S12       29.82S WCI   5
WINDOM         LGT SNOW  18  12  79 SE12      29.89S WCI   5
WORTHINGTON    CLOUDY    16  10  79 S13       29.86F WCI   2
JACKSON        LGT SNOW  18  12  79 SE13      29.89F WCI   4
TRACY          CLOUDY    18  13  80 S14G20    29.88S WCI   4
SLAYTON        CLOUDY    16  13  89 SE15      29.85F FOG     WCI   1
$$
MNZ065>067-074>077-082>085-091>093-141800-
   South Central Minnesota

CITY           SKY/WX    TMP DP  RH WIND       PRES   REMARKS
MANKATO        CLOUDY    18  10  73 SE18      29.97S WCI   2
NEW ULM        LGT SNOW  16  12  86 SE13G18   29.95F WCI   2
ST JAMES       CLOUDY    18  16  93 SE17G23   29.95S FOG     WCI   2
FAIRMONT       CLOUDY    18  10  73 SE23      29.91S WCI   0
GLENCOE        LGT SNOW  19  14  84 SE14      29.97F WCI   5
FARIBAULT      CLOUDY    16  10  79 SE12      30.01S WCI   3
OWATONNA       LGT SNOW  16  10  79 SE18G24   29.98F WCI  -1
WASECA         LGT SNOW  18  12  79 SE20      29.99F WCI   1
ALBERT LEA     LGT SNOW  16  12  86 SE15G23   29.97S WCI   1
$$
MNZ078>079-086>088-094>096-141800-
   Southeast Minnesota

CITY           SKY/WX    TMP DP  RH WIND       PRES   REMARKS
ROCHESTER      LGT SNOW  14   9  80 SE18      30.00F WCI  -3
RED WING       CLOUDY    16   7  67 SE13      30.06S WCI   2
STANTON        LGT SNOW  17  10  71 SE17G24   30.01S WCI   2
DODGE CENTER   LGT SNOW  14  10  85 SE20      29.98F WCI  -3
WINONA         LGT SNOW  16  10  79 SE10      30.11F WCI   3
AUSTIN         LGT SNOW  16  10  79 SE15G21   29.99S WCI   1
PRESTON        LGT SNOW  14   9  80 SE16G22   30.02F WCI  -2
$$
ABBREVIATIONS USED IN REMARKS
   TC - TEMPERATURES IN CELSIUS
  WCI - WIND CHILL INDEX
   HX - HEAT INDEX
  VSB - VISIBILITY
$$



USA.gov is the U.S. government's official web portal to all federal, state and local government web resources and services.